DW7355 Weather Reports


time (UTC)temp
C
wind
direction
speed
KPH
gust
KPH
rain 1hr
cm
rain 24hr
cm
rain mn
cm
humidity
%
barometer
mb
20240417220007 10 93 3.2 12.9 0.00 0.00 0.00 60 1019.8
20240417214508 11 95 3.2 8.0 0.00 0.00 0.00 61 1019.7
20240417213005 10 105 1.6 9.7 0.00 0.00 0.00 63 1019.7
20240417211504 11 58 3.2 14.5 0.00 0.00 0.00 61 1019.5
20240417210010 11 72 4.8 12.9 0.00 0.00 0.00 58 1019.5
20240417204508 11 111 1.6 12.9 0.00 0.00 0.00 59 1019.5
20240417203003 10 118 4.8 16.1 0.00 0.00 0.00 58 1019.6
20240417201601 10 49 3.2 12.9 0.00 0.00 0.00 60 1019.7
20240417200103 10 165 4.8 9.7 0.00 0.00 0.00 58 1019.9
20240417194607 10 146 3.2 11.3 0.00 0.00 0.00 57 1020.0
20240417193055 11 33 6.4 16.1 0.00 0.00 0.00 57 1020.1
20240417191557 11 103 4.8 12.9 0.00 0.00 0.00 56 1020.3
20240417190055 12 65 6.4 14.5 0.00 0.00 0.00 52 1020.5
20240417184555 12 128 6.4 12.9 0.00 0.00 0.00 52 1020.7
20240417183048 12 82 4.8 12.9 0.00 0.00 0.00 53 1020.9
20240417181548 12 141 8.0 12.9 0.00 0.00 0.00 53 1020.9
20240417180045 12 147 8.0 14.5 0.00 0.00 0.00 52 1021.0
20240417174556 12 153 8.0 19.3 0.00 0.00 0.00 51 1021.2
20240417173043 12 135 4.8 19.3 0.00 0.00 0.00 53 1021.3
20240417171543 13 85 3.2 11.3 0.00 0.00 0.00 49 1021.3
20240417170041 13 245 6.4 16.1 0.00 0.00 0.00 48 1021.4
20240417164540 13 295 0.0 9.7 0.00 0.00 0.00 48 1021.7
20240417163042 12 158 6.4 9.7 0.00 0.00 0.00 48 1022.1
20240417161534 12 167 1.6 12.9 0.00 0.00 0.00 49 1022.4
20240417160031 12 95 3.2 9.7 0.00 0.00 0.00 48 1022.5
20240417154530 11 124 4.8 11.3 0.00 0.00 0.00 48 1022.7
20240417153029 11 262 1.6 9.7 0.00 0.00 0.00 50 1022.8
20240417151527 11 59 1.6 8.0 0.00 0.00 0.00 51 1022.7
20240417150037 10 132 3.2 14.5 0.00 0.00 0.00 54 1023.0
20240417144528 10 134 4.8 11.3 0.00 0.00 0.00 53 1023.2
20240417143041 10 149 0.0 6.4 0.00 0.00 0.00 53 1023.3
20240417141531 10 9 1.6 6.4 0.00 0.00 0.00 53 1023.6
20240417140030 10 48 3.2 8.0 0.00 0.00 0.00 52 1023.6
20240417134529 10 140 1.6 9.7 0.00 0.00 0.00 51 1023.8
20240417133023 10 129 4.8 9.7 0.00 0.00 0.00 52 1024.0
20240417131521 9 133 1.6 8.0 0.00 0.00 0.00 53 1024.0
20240417130021 9 79 0.0 6.4 0.00 0.00 0.00 54 1024.2
20240417124533 8 155 1.6 4.8 0.00 0.00 0.00 56 1024.3
20240417123019 8 131 1.6 6.4 0.00 0.00 0.00 59 1024.3
20240417121517 8 58 1.6 4.8 0.00 0.00 0.00 62 1024.1
20240417120019 8 93 1.6 3.2 0.00 0.00 0.00 64 1024.2
20240417114516 7 113 0.0 6.4 0.00 0.00 0.00 67 1024.2
20240417113016 7 11 1.6 4.8 0.00 0.00 0.00 69 1024.0
20240417111513 6 62 1.6 6.4 0.00 0.00 0.00 70 1024.1
20240417110013 6 82 0.0 4.8 0.00 0.00 0.00 71 1024.2
20240417104512 6 60 0.0 3.2 0.00 0.00 0.00 74 1024.2
20240417103008 -17 0.0 0.0 0.00 0.00 0.00 1024.0
20240417101504 -17 0.0 0.0 0.00 0.00 0.00 1023.9
20240417100059 -17 0.0 0.0 0.00 0.00 0.00 1023.9
20240417094601 -17 0.0 0.0 0.00 0.00 0.00 1023.8
20240417093121 6 71 0.0 6.4 0.00 0.00 0.00 71 1023.5
20240417091558 6 93 0.0 4.8 0.00 0.00 0.00 72 1023.3
20240417090046 7 20 1.6 6.4 0.00 0.00 0.00 72 1023.2
20240417084543 7 299 0.0 1.6 0.00 0.00 0.00 75 1023.0
20240417083041 7 70 1.6 6.4 0.00 0.00 0.00 74 1022.6
20240417081537 7 70 3.2 9.7 0.00 0.00 0.00 73 1022.6
20240417080034 8 27 1.6 6.4 0.00 0.00 0.00 70 1022.5
20240417074536 8 23 3.2 8.0 0.00 0.00 0.00 69 1022.4
20240417073029 8 75 0.0 6.4 0.00 0.00 0.00 69 1022.3
20240417071536 8 58 0.0 9.7 0.00 0.00 0.00 70 1022.1
20240417070025 8 95 0.0 4.8 0.00 0.00 0.00 70 1022.1
20240417064530 8 93 0.0 4.8 0.00 0.00 0.00 68 1022.1
20240417063022 8 12 0.0 4.8 0.00 0.00 0.00 68 1022.3
20240417061523 8 79 0.0 1.6 0.00 0.00 0.00 68 1022.2
20240417060018 8 39 0.0 0.0 0.00 0.00 0.00 64 1022.2
20240417054514 9 39 0.0 0.0 0.00 0.00 0.00 62 1022.2
20240417053012 10 39 0.0 0.0 0.00 0.00 0.00 61 1022.2
20240417051507 10 39 0.0 0.0 0.00 0.00 0.00 57 1022.3
20240417050007 11 40 0.0 3.2 0.00 0.00 0.00 57 1022.2
20240417044503 11 25 0.0 3.2 0.00 0.00 0.00 54 1022.2
20240417043003 11 75 0.0 3.2 0.00 0.00 0.00 55 1022.2
20240417041601 11 76 0.0 1.6 0.00 0.00 0.00 53 1022.1
20240417040056 12 76 0.0 4.8 0.00 0.00 0.00 51 1021.9
20240417034556 12 25 0.0 3.2 0.00 0.00 0.00 51 1021.7
20240417033052 12 26 0.0 4.8 0.00 0.00 0.00 52 1021.3
20240417031601 12 79 0.0 1.6 0.00 0.00 0.00 54 1021.0
20240417030045 12 12 0.0 1.6 0.00 0.00 0.00 55 1020.6
20240417024643 11 29 0.0 4.8 0.00 0.00 0.00 57 1020.2
20240417023040 12 297 0.0 0.0 0.00 0.00 0.00 55 1019.8
20240417021540 11 297 0.0 0.0 0.00 0.00 0.00 55 1019.8
20240417020037 11 297 0.0 0.0 0.00 0.00 0.00 55 1019.6
20240417014539 12 297 0.0 0.0 0.00 0.00 0.00 54 1019.5
20240417013034 12 297 0.0 0.0 0.00 0.00 0.00 54 1019.3
20240417011534 12 298 0.0 0.0 0.00 0.00 0.00 51 1019.4
20240417010040 12 297 0.0 0.0 0.00 0.00 0.00 52 1019.1
20240417004531 13 297 0.0 0.0 0.00 0.00 0.00 49 1019.0
20240417003029 13 297 0.0 0.0 0.00 0.00 0.00 45 1018.8
20240417001527 14 298 0.0 0.0 0.00 0.00 0.00 42 1018.6
20240417000027 15 298 0.0 0.0 0.00 0.00 0.00 39 1018.4
20240416234525 16 298 0.0 1.6 0.00 0.00 0.00 35 1018.2
20240416233025 17 272 0.0 1.6 0.00 0.00 0.00 35 1018.1
20240416231523 17 319 0.0 3.2 0.00 0.00 0.00 33 1018.0
20240416230023 17 326 0.0 6.4 0.00 0.00 0.00 32 1017.8
20240416224522 18 257 3.2 9.7 0.00 0.00 0.00 31 1017.7
20240416223023 18 277 1.6 6.4 0.00 0.00 0.00 31 1017.5
20240416221521 18 314 4.8 11.3 0.00 0.00 0.00 30 1017.4